Dewpoint
35 27 22 23 23 16 11 9 10 18 34 40 42 46 59 55 54 56 57 58 57 58 59 61 60 60 59 60 64 66 68 73 69 67 66 66 64 67 66 66 71 73 72 72
25 23 23 20 19 17 14 14 12 12 19 38 41 43 51 53 54 55 56 58 57 58 59 61 61 61 60 61 64 68 70 73 71 67 68 67 68 65 65 66 71 72 72 73
26 21 21 19 17 17 17 16 16 16 19 29 39 41 49 60 57 55 55 58 57 57 58 60 61 61 61 61 64 68 72 73 72 71 69 69 69 69 65 69 68 70 71 72
25 22 22 19 19 18 17 16 15 14 16 27 36 34 41 56 61 53 54 56 56 55 59 59 61 61 61 61 63 69 71 73 72 74 69 73 67 64 64 66 66 69 71 71
21 24 24 25 21 19 20 17 15 14 16 21 28 31 32 43 48 50 52 54 56 55 56 58 60 62 62 61 62 65 71 73 73 73 73 69 71 65 64 63 74 77 76 72
27 21 21 23 25 24 23 19 18 16 12 12 23 27 31 36 43 49 51 52 55 55 56 58 60 61 62 62 61 63 71 74 74 74 73 75 73 71 63 66 67 67 68 70
22 27 25 24 25 26 25 21 17 14 12 10 11 19 34 34 43 45 49 52 54 55 56 57 59 60 62 63 64 64 71 74 74 73 72 73 75 75 74 73 65 68 63 63
16 17 23 26 25 24 25 20 18 20 11 6 10 14 24 33 41 48 49 51 53 55 56 57 59 60 62 64 67 67 71 73 74 73 73 74 75 67 66 72 66 63 62 63
12 15 22 23 27 25 23 22 20 16 15 11 7 12 15 24 31 45 49 49 52 54 55 57 58 59 61 64 68 69 71 74 74 72 74 74 74 73 68 74 75 68 72 64
17 20 21 23 27 27 25 25 21 21 22 19 16 16 10 21 28 34 39 44 47 52 53 55 58 60 61 62 64 68 71 73 74 72 73 73 73 74 74 75 76 74 74 73
16 17 15 18 26 25 25 25 27 23 22 20 18 19 23 22 29 32 34 41 43 45 50 52 55 58 61 62 63 65 68 72 73 72 73 73 73 73 74 72 74 75 75 76
20 16 15 11 12 16 20 24 24 26 29 24 22 20 23 22 22 30 36 38 40 41 45 48 52 56 59 62 62 64 65 66 70 72 73 73 74 74 73 73 73 75 76 77
25 20 16 14 10 12 20 24 27 22 24 30 23 23 32 30 30 32 34 36 39 41 43 44 48 55 58 61 65 64 64 64 66 71 70 73 73 74 74 74 74 74 76 76
30 23 22 13 16 18 18 15 24 25 24 24 26 27 31 32 33 40 45 48 48 48 45 47 49 53 59 63 67 68 65 64 65 66 68 72 74 74 73 74 75 75 76 77
25 24 23 21 18 17 16 19 23 28 30 28 27 28 32 34 34 45 48 48 49 49 51 48 49 52 58 63 68 69 66 68 67 69 69 71 75 75 75 75 75 76 76 76
27 28 28 24 23 18 17 15 16 19 22 25 30 31 34 37 40 40 41 49 50 51 53 55 55 56 57 60 64 69 69 69 69 71 70 72 74 76 75 75 76 76 76 77
31 33 28 25 21 18 17 17 13 15 18 20 25 32 35 35 38 48 52 51 52 52 55 57 59 59 60 57 63 66 70 69 71 72 72 72 75 76 76 76 76 77 77 77
24 31 33 30 24 18 15 19 22 23 20 17 22 26 31 37 43 45 51 50 51 53 54 56 57 60 60 59 57 63 65 72 72 72 73 73 75 75 76 77 77 77 77 77
22 22 33 28 21 20 16 36 36 34 26 39 23 25 31 42 43 44 46 50 50 53 54 55 57 60 63 64 63 62 66 69 72 73 73 74 74 75 76 76 77 77 77 77
23 24 25 24 25 19 33 37 38 39 29 42 42 43 43 43 40 45 48 47 49 52 54 55 58 62 63 64 65 64 62 69 72 72 73 75 75 76 76 77 77 77 77 76
34 35 30 27 26 20 33 34 36 33 34 42 42 43 43 42 45 48 47 48 49 52 52 56 57 63 67 68 70 69 67 67 71 71 73 76 76 77 77 78 78 78 77 75
33 34 35 33 28 23 35 34 33 41 42 41 41 42 43 44 45 46 47 48 48 50 51 55 55 62 65 70 73 72 71 71 74 74 74 75 77 74 74 78 78 78 78 77
34 36 35 35 29 30 38 37 40 40 41 42 42 43 45 46 45 46 46 48 48 49 50 52 54 58 58 63 71 69 75 75 75 75 75 76 76 76 75 77 78 75 77 72
36 39 36 36 30 34 39 39 42 43 42 43 43 43 45 46 48 46 46 48 48 49 50 51 53 56 57 60 62 66 68 73 74 75 76 75 75 75 75 73 73 72 70 71
38 38 37 37 37 39 39 40 42 42 42 42 43 43 44 45 47 48 48 49 49 49 51 53 55 54 56 58 59 60 61 64 73 73 72 74 72 73 74 73 71 70 72 67
37 35 34 33 37 37 39 41 42 42 42 43 43 44 44 46 47 48 49 49 49 49 53 53 56 55 55 56 56 58 60 59 67 72 72 70 69 71 71 70 70 56 58 54
Lifted_Index
7 7 7 7 6 5 3 3 2 1 -0 -1 -1 -3 -3 -3 -3 -2 -2 -3 -3 -3 -2 -2 -2 -1 -0 0 0 -0 -1 -2 -2 -2 -1 -2 -2 -2 -2 -3 -3 -4 -4 -4
7 7 7 7 7 6 5 4 3 1 0 -1 -2 -3 -3 -3 -3 -3 -2 -2 -2 -2 -2 -2 -2 -1 -1 -0 -0 -0 -1 -2 -2 -1 -1 -1 -2 -2 -2 -3 -3 -4 -4 -4
7 7 7 7 7 6 6 5 4 2 1 -0 -2 -3 -3 -4 -4 -3 -3 -2 -2 -2 -2 -2 -2 -2 -1 -0 -1 -1 -2 -2 -2 -1 -1 -1 -2 -2 -2 -2 -3 -3 -3 -4
7 7 7 7 7 6 6 5 4 3 2 1 -1 -2 -3 -4 -4 -3 -3 -3 -2 -2 -2 -2 -2 -2 -1 -1 -1 -1 -2 -2 -2 -2 -1 -1 -1 -1 -1 -2 -3 -3 -3 -3
6 6 7 7 7 6 6 5 5 4 3 2 0 -0 -2 -3 -3 -3 -3 -3 -3 -3 -2 -3 -2 -2 -2 -1 -1 -1 -2 -2 -2 -2 -2 -2 -1 -1 -1 -1 -3 -3 -3 -3
5 6 6 6 6 6 6 5 4 4 3 3 2 1 -1 -1 -2 -2 -3 -3 -3 -3 -3 -3 -3 -3 -2 -1 -1 -1 -2 -3 -3 -2 -2 -2 -2 -1 -1 -1 -2 -2 -3 -3
3 4 5 5 5 5 5 4 4 3 2 3 3 2 0 -1 -2 -2 -2 -3 -3 -3 -3 -3 -3 -3 -2 -2 -2 -2 -2 -3 -3 -3 -3 -3 -3 -2 -2 -2 -2 -1 -1 -1
1 2 3 3 4 4 4 4 3 1 1 1 2 1 1 -0 -1 -1 -2 -3 -4 -3 -3 -3 -3 -3 -3 -3 -3 -3 -3 -3 -3 -3 -3 -3 -3 -2 -2 -2 -2 -1 -1 -1
1 1 1 1 2 2 2 2 2 1 -0 0 0 1 1 1 0 -0 -1 -2 -3 -3 -3 -3 -3 -3 -3 -3 -3 -3 -4 -4 -4 -3 -3 -3 -3 -3 -2 -3 -3 -3 -2 -2
2 2 1 0 0 1 1 1 1 0 -0 -1 -1 -0 0 0 1 0 -0 -1 -2 -3 -3 -3 -3 -3 -4 -3 -3 -4 -4 -4 -4 -4 -3 -3 -3 -3 -3 -4 -4 -4 -3 -3
3 3 2 0 -0 0 1 1 0 -0 -0 -1 -1 -1 -0 0 0 1 0 -0 -1 -2 -2 -3 -3 -4 -4 -4 -3 -3 -4 -4 -4 -4 -4 -4 -4 -4 -4 -4 -4 -4 -4 -4
4 3 3 2 1 1 1 0 -0 -1 -1 -0 -0 -1 -0 -0 0 0 0 -0 -1 -1 -2 -2 -3 -3 -4 -4 -3 -3 -3 -3 -4 -4 -4 -4 -4 -4 -4 -4 -4 -4 -5 -5
4 3 3 2 2 1 1 0 -0 -1 -1 -0 -0 -0 -0 -0 -0 -0 -1 -1 -1 -1 -1 -1 -2 -3 -3 -4 -4 -4 -3 -3 -3 -4 -4 -4 -5 -5 -5 -5 -4 -4 -5 -5
4 3 2 2 1 1 1 1 -0 -1 -0 -0 -0 -0 -0 -1 -1 -2 -2 -1 -1 -1 -0 -0 -1 -2 -3 -4 -5 -5 -4 -4 -3 -3 -4 -4 -5 -5 -5 -5 -5 -5 -5 -6
2 2 2 2 2 2 2 1 1 1 1 1 0 0 -0 -0 -1 -2 -2 -1 -1 -0 -0 -1 -1 -2 -3 -4 -5 -6 -5 -5 -4 -4 -4 -4 -5 -5 -5 -5 -6 -6 -6 -6
1 1 1 2 2 2 2 2 3 3 3 2 1 1 1 1 -0 -1 -1 -1 -1 -1 -1 -2 -2 -2 -3 -4 -5 -6 -6 -6 -5 -5 -5 -5 -5 -6 -6 -6 -6 -6 -6 -6
-1 -0 1 1 1 1 2 2 3 3 3 3 3 2 2 1 1 -0 -0 -0 -0 -0 -1 -2 -2 -3 -3 -3 -4 -5 -6 -6 -6 -6 -5 -5 -6 -6 -6 -6 -6 -6 -6 -6
-1 -1 -0 0 -0 0 1 1 1 1 2 2 3 2 2 1 1 1 1 1 1 1 0 -0 -1 -2 -3 -3 -3 -4 -6 -7 -7 -7 -6 -6 -6 -6 -7 -7 -7 -7 -7 -7
-1 -1 -0 -0 -0 -1 -0 -0 -0 0 1 1 1 2 2 2 2 2 2 2 3 2 1 1 -0 -2 -3 -3 -4 -4 -5 -6 -7 -7 -7 -7 -7 -7 -7 -7 -7 -7 -7 -7
-1 -1 -1 -0 -0 -1 -1 -0 -0 0 0 0 1 2 2 3 3 2 3 3 3 3 2 1 -0 -2 -3 -4 -5 -5 -5 -6 -8 -8 -8 -8 -7 -7 -7 -8 -8 -8 -7 -7
-1 -1 -1 -0 -0 -1 -1 -0 0 0 0 0 1 2 2 3 3 3 4 4 4 2 1 0 -1 -2 -4 -5 -6 -6 -6 -7 -8 -8 -9 -8 -8 -7 -8 -8 -8 -8 -7 -7
-0 -0 -0 -0 -0 -1 -1 -1 -0 0 1 2 2 3 3 3 4 5 5 5 4 2 0 -1 -1 -2 -4 -6 -7 -7 -7 -8 -8 -9 -9 -9 -8 -8 -7 -8 -8 -8 -7 -7
1 1 1 0 -0 -1 -1 -1 -0 0 1 3 3 4 3 3 4 5 5 5 5 3 1 -0 -2 -2 -4 -5 -6 -7 -7 -8 -9 -9 -9 -9 -9 -8 -7 -8 -8 -7 -7 -7
2 2 2 1 0 -0 -1 -1 -0 1 2 3 4 4 4 4 5 5 6 6 6 6 4 2 0 -2 -3 -5 -6 -6 -7 -7 -8 -9 -9 -9 -9 -8 -8 -7 -7 -7 -6 -6
3 3 3 2 2 1 1 1 1 1 3 4 4 4 4 4 5 6 6 6 7 8 7 5 3 1 -1 -3 -4 -5 -6 -7 -8 -8 -8 -8 -8 -8 -8 -7 -6 -6 -6 -6
4 3 3 3 3 2 2 1 1 2 3 4 4 4 4 4 5 6 6 7 8 8 7 6 5 3 1 -2 -3 -4 -5 -6 -7 -8 -8 -8 -8 -8 -8 -7 -6 -6 -6 -6